Location: Avenches
(46.8809°N, 7.0410°E)
Time: 05:56:09
(UTC+00:00)

NOSS 3-3 (C) - Pass Details

Date: 30 March 2020
Orbit: 836 x 1376 km, 63.4° (Epoch: 05 May)

Event Time Altitude Azimuth Distance (km) Brightness Sun altitude
Rises 19:40:38 0° 196° (SSW) 3,414 6.7 -17.4°
Reaches altitude 10° 19:43:05 10° 190° (S) 2,518 6.0 -17.8°
Maximum altitude 19:48:35 46° 118° (ESE) 1,236 4.1 -18.6°
Drops below altitude 10° 19:54:44 10° 48° (NE) 2,812 6.2 -19.5°
Sets 19:57:37 0° 43° (NE) 3,854 7.0 -20.0°
